Location: Austin
(30.3000°N, 97.7500°W)
Time: 01:51:29
(UTC-06:00)

Cosmos 1726 Rocket - Pass Details

Date: 20 November 2023
Orbit: 600 x 627 km, 82.5° (Epoch: 05 December)

Event Time Altitude Azimuth Distance (km) Brightness Sun altitude
Rises 18:55:57 0° 196° (SSW) 2,886 7.4 -18.0°
Reaches altitude 10° 18:58:12 10° 201° (SSW) 1,987 6.6 -18.5°
Maximum altitude 19:02:30 52° 278° (W) 774 4.4 -19.4°
Drops below altitude 10° 19:06:51 10° 355° (N) 2,004 6.1 -20.3°
Sets 19:09:09 0° 0° (N) 2,915 6.9 -20.8°
